Location: Newark
(59.4564°N, 26.6917°E)
Time: 21:45:19
(UTC+00:00)

SR - Pass Details

Date: 25 November 2019
Orbit: 573 x 882 km, 66.7° (Epoch: 12 December)

Event Time Altitude Azimuth Distance (km) Brightness Sun altitude
Rises 12:17:40 0° 213° (SSW) 3,278 ? 5.0°
Reaches altitude 10° 12:20:01 10° 210° (SSW) 2,393 ? 4.8°
Maximum altitude 12:25:31 63° 131° (SE) 945 ? 4.5°
Drops below altitude 10° 12:31:21 10° 52° (NE) 2,539 ? 4.0°
Sets 12:33:55 0° 49° (NE) 3,492 ? 3.8°
